Regional Weather Roundup
Issued by NWS Cleveland, OH

Home | Current Version | Previous Version | Graphics & Text | Print | Product List | Glossary On
Versions: 1 2 3 4 5 6 7 8 9 10 11 12 13 14 15 16 17 18 19 20 21 22 23 24 25 26 27 28 29 30 31 32 33 34 35 36 37 38 39 40 41 42 43 44 45 46 47 48 49 50
245
ASUS41 KCLE 161100
RWRCLE
OHIO REGIONAL WEATHER ROUNDUP
NATIONAL WEATHER SERVICE WILMINGTON, OH
600 AM EST SAT DEC 16 2017

NOTE: "FAIR" INDICATES FEW OR NO CLOUDS BELOW 12,000 FEET WITH NO
SIGNIFICANT WEATHER AND/OR OBSTRUCTIONS TO VISIBILITY.

OHZ001>008-015>018-024>027-034-035-043-044-161200-
   NORTHWEST OHIO

CITY           SKY/WX    TMP DP  RH WIND       PRES   REMARKS
DEFIANCE       CLOUDY    33  23  66 SW14      29.93S WCI  23
FINDLAY        CLOUDY    34  23  64 SW17      29.95R WCI  23
TOLEDO EXPRESS CLOUDY    34  25  69 SW16      29.92R WCI  24
TOLEDO EXEC    CLOUDY    32  25  75 SW12      29.94R WCI  23
LIMA           CLOUDY    33  25  72 SW15      29.97S WCI  23
$$

OHZ009>014-019>023-028>033-038-089-161200-
   NORTHEAST OHIO

CITY           SKY/WX    TMP DP  RH WIND       PRES   REMARKS
CLE-HOPKINS    CLOUDY    32  26  78 SW10      29.97F WCI  24
CLE-LAKEFRONT  CLOUDY    31  26  82 SW15      29.95S WCI  20
CUY CO. ARPT   NOT AVBL
LORAIN-ELYRIA  CLOUDY    31  21  66 SW12      29.95F WCI  22
ASHTABULA      LGT SNOW  27  25  92 SW10      29.93S FOG     WCI  17
AKRON-CANTON   LGT SNOW  30  23  75 SW14      29.97S WCI  19
WOOSTER        NOT AVBL
MANSFIELD      CLOUDY    31  23  72 SW16G23   29.96S WCI  20
YOUNGSTOWN     LGT SNOW  27  24  89 SW13      29.95S WCI  16
$$

OHZ042-051>053-060>062-070>072-077>081-161200-
  SOUTHWEST OHIO

CITY           SKY/WX    TMP DP  RH WIND       PRES   REMARKS
CINC-COVINGTON MOCLDY    34  26  72 SW10      30.07R WCI  26
CINC-LUNKEN    CLOUDY    34  25  69 S10       30.10R WCI  26
HAMILTON       MOCLDY    34  25  69 S6        30.08R WCI  29
DAYTON         NOT AVBL
WRIGHT-PAT AFB CLOUDY    34  25  70 SW13      30.03S WCI  25
DAYTON GENERAL MOCLDY    33  24  69 SW10      30.04R WCI  25
WILMINGTON     CLOUDY    32  25  75 SW12      30.04S WCI  23
$$

OHZ036-037-039>041-045>050-054>059-063>069-073>076-082>088-161200-
  CENTRAL AND SOUTHEAST OHIO

CITY           SKY/WX    TMP DP  RH WIND       PRES   REMARKS
COLUMBUS       CLOUDY    34  24  67 SW13      30.04S WCI  25
OSU AIRPORT    CLOUDY    33  25  72 SW15G21   30.03R WCI  23
BOLTON FIELD   CLOUDY    32  25  73 SW13      30.05R WCI  23
RICKENBACK AFB NOT AVBL
NEWARK         CLOUDY    32  24  72 SW8       30.03F WCI  25
MARION         CLOUDY    32  24  72 SW16      29.99  WCI  21
LANCASTER      CLOUDY    33  24  69 SW7       30.06S WCI  27
ZANESVILLE     CLOUDY    33  22  63 SW8       30.05S WCI  26
NEW PHILLY     CLOUDY    31  22  69 SW7       30.03F WCI  24
$$




USA.gov is the U.S. government's official web portal to all federal, state and local government web resources and services.